Home > Weather > Tucumán > Past weeks

Flag for Argentina Past Weather in Tucumán, Tucumán, Argentina — Yesterday and Last 2 Weeks

Now
57 °F

Passing clouds.


Feels Like: 57 °F
Forecast: 48 / 67 °F
Wind: 5 mph from Northwest

Location: Tucuman Aerodrome

Current Time: Jul 25, 2016 at 1:18:16 AM

Latest Report: Jul 25, 2016 at 1:00 AM


Visibility: 4 mi

Pressure: 29.92 "Hg

Humidity: 77%

Dew Point: 50 °F

Location of TucumánLocation

Past Weather in Tucumán — Graph

°F

Tucumán Temperature Yesterday

Maximum temperature yesterday: 68 °F (at 3:00 PM)
Minimum temperature yesterday: 45 °F (at 8:00 AM)
Average temperature yesterday: 58 °F

High & Low Weather Summary for the Past Weeks

 TemperatureHumidityPressure
High72 °F (Jul 22, 4:00 PM)100% (Jul 11, 10:00 AM)30.42 "Hg (Jul 11, 10:00 AM)
Low39 °F (Jul 20, 8:00 AM)37% (Jul 20, 4:00 PM)29.71 "Hg (Jul 13, 4:00 PM)
Average54 °F77%30.05 "Hg
* Reported Jul 10 12:00 AM — Jul 25 12:00 AM, Tucumán, Weather by CustomWeather, © 2016

Note: Actual official high and low records may vary slightly from our data, if they occured in-between our weather recording intervals... More about our weather records

Advertising

Tucumán Weather History for the Previous 24 Hours

Scroll right to see more
 ConditionsComfort  
Time TempWeatherWind HumidityBarometerVisibility
12:00 AM
Mon, Jul 25
57 °FOvercast.6 mph82%29.92 "Hg4 mi
11:00 PM
Sun, Jul 24
55 °FClear.9 mph82%29.92 "Hg4 mi
10:00 PM57 °FClear.9 mph77%29.92 "Hg4 mi
8:00 PM61 °FClear.5 mph68%29.89 "Hg4 mi
7:00 PM66 °FClear.5 mph56%29.89 "Hg4 mi
6:00 PM68 °FClear.5 mph53%29.86 "Hg4 mi
5:00 PM68 °FClear.9 mph53%29.86 "Hg4 mi
4:00 PM68 °FClear.5 mph53%29.86 "Hg5 mi
3:00 PM68 °FClear.7 mph49%29.89 "Hg5 mi
2:00 PM66 °FClear.9 mph52%29.95 "Hg5 mi
1:00 PM66 °FClear.9 mph56%29.98 "Hg4 mi
12:00 PM61 °FClear.No wind63%30.04 "Hg4 mi
11:00 AM59 °FClear.6 mph68%30.04 "Hg4 mi
10:00 AM54 °FClear.3 mph77%30.07 "Hg3 mi
9:00 AM48 °FFog.7 mph82%30.04 "Hg2 mi
8:00 AM45 °FFog.7 mph87%30.04 "Hg3 mi
7:00 AM48 °FClear.7 mph87%30.01 "Hg4 mi
6:00 AM50 °FClear.7 mph82%29.98 "Hg4 mi
5:00 AM50 °FClear.6 mph88%29.98 "Hg4 mi
4:00 AM52 °FClear.7 mph88%29.98 "Hg5 mi
3:00 AM52 °FClear.9 mph82%30.01 "Hg4 mi
2:00 AM54 °FClear.7 mph82%30.01 "Hg3 mi
Weather by CustomWeather, © 2016

See weather overviewHow to use our weather pages